When you browse on this site, cookies collect data to enhance your experience and personalize the content and advertising you see.
Visit our Privacy Policy to learn more. By continuing to use the site, you agree to this use of cookies and data.
  • In France
  • List of Countries
  • For 7 days
  • Water Temperature
  • Weather Map
  • Weather Widgets
  • user-avatar
    Login

    Hourly Weather Amen

    Today, 17 September, Tuesday

    Time Temperature Precipitation Wind Pressure Humidity
    00:00 +17°C° 0 mm 2 mps 764 mmHg 92%
    01:00 +16°C° 0 mm 2 mps 764 mmHg 91%
    02:00 +16°C° 0 mm 2 mps 764 mmHg 91%
    03:00 +16°C° 0 mm 2 mps 764 mmHg 91%
    04:00 +15°C° 0 mm 2 mps 764 mmHg 92%
    05:00 +15°C° 0 mm 2 mps 764 mmHg 93%
    06:00 +14°C° 0 mm 2 mps 764 mmHg 95%
    07:00 +15°C° 0 mm 2 mps 764 mmHg 85%
    08:00 +17°C° 0 mm 3 mps 764 mmHg 75%
    09:00 +18°C° 0 mm 3 mps 765 mmHg 66%
    10:00 +19°C° 0 mm 3 mps 765 mmHg 59%
    11:00 +20°C° 0 mm 3 mps 765 mmHg 53%
    12:00 +21°C° 0 mm 3 mps 765 mmHg 47%
    13:00 +21°C° 0 mm 4 mps 765 mmHg 49%
    14:00 +21°C° 0 mm 5 mps 764 mmHg 51%
    15:00 +21°C° 0 mm 5 mps 764 mmHg 53%
    16:00 +19°C° 0 mm 5 mps 765 mmHg 58%
    17:00 +16°C° 0 mm 5 mps 765 mmHg 64%
    18:00 +14°C° 0 mm 5 mps 765 mmHg 69%
    19:00 +13°C° 0 mm 5 mps 766 mmHg 72%
    20:00 +12°C° 0 mm 4 mps 766 mmHg 74%
    21:00 +12°C° 0 mm 4 mps 767 mmHg 77%
    22:00 +11°C° 0 mm 4 mps 767 mmHg 78%
    23:00 +10°C° 0 mm 4 mps 767 mmHg 79%

    Tomorrow, 18 September, Wednesday

    Time Temperature Precipitation Wind Pressure Humidity
    00:00 +10°C° 0 mm 3 mps 767 mmHg 80%
    01:00 +9°C° 0 mm 3 mps 767 mmHg 82%
    02:00 +9°C° 0 mm 3 mps 767 mmHg 84%
    03:00 +8°C° 0 mm 3 mps 767 mmHg 86%
    04:00 +8°C° 0 mm 3 mps 767 mmHg 86%
    05:00 +8°C° 0 mm 2 mps 768 mmHg 87%
    06:00 +8°C° 0 mm 2 mps 768 mmHg 87%
    07:00 +10°C° 0 mm 3 mps 768 mmHg 78%
    08:00 +12°C° 0 mm 4 mps 768 mmHg 68%
    09:00 +14°C° 0 mm 5 mps 769 mmHg 59%
    10:00 +15°C° 0 mm 5 mps 768 mmHg 56%
    11:00 +16°C° 0 mm 5 mps 768 mmHg 52%
    12:00 +17°C° 0 mm 5 mps 768 mmHg 49%
    13:00 +17°C° 0 mm 5 mps 768 mmHg 47%
    14:00 +19°C° 0 mm 5 mps 768 mmHg 46%
    15:00 +19°C° 0 mm 5 mps 768 mmHg 45%
    16:00 +17°C° 0 mm 5 mps 768 mmHg 50%
    17:00 +15°C° 0 mm 4 mps 768 mmHg 56%
    18:00 +14°C° 0 mm 4 mps 767 mmHg 62%
    19:00 +13°C° 0 mm 4 mps 768 mmHg 65%
    20:00 +12°C° 0 mm 4 mps 769 mmHg 69%
    21:00 +11°C° 0 mm 4 mps 769 mmHg 72%
    22:00 +10°C° 0 mm 3 mps 769 mmHg 75%
    23:00 +10°C° 0 mm 3 mps 769 mmHg 78%

    Day after tomorrow, 19 September, Thursday

    Time Temperature Precipitation Wind Pressure Humidity
    00:00 +9°C° 0 mm 3 mps 769 mmHg 81%
    01:00 +9°C° 0 mm 3 mps 769 mmHg 84%
    02:00 +9°C° 0 mm 3 mps 769 mmHg 88%
    03:00 +8°C° 0 mm 3 mps 769 mmHg 91%
    04:00 +8°C° 0 mm 3 mps 769 mmHg 90%
    05:00 +8°C° 0 mm 2 mps 769 mmHg 90%
    06:00 +8°C° 0 mm 2 mps 769 mmHg 89%
    07:00 +10°C° 0 mm 3 mps 770 mmHg 80%
    08:00 +12°C° 0 mm 4 mps 770 mmHg 70%
    09:00 +14°C° 0 mm 4 mps 770 mmHg 61%
    10:00 +16°C° 0 mm 5 mps 770 mmHg 57%
    11:00 +17°C° 0 mm 5 mps 770 mmHg 54%
    12:00 +19°C° 0 mm 5 mps 770 mmHg 51%
    13:00 +19°C° 0 mm 5 mps 769 mmHg 50%
    14:00 +19°C° 0 mm 5 mps 769 mmHg 50%
    15:00 +19°C° 0 mm 5 mps 769 mmHg 49%
    16:00 +18°C° 0 mm 4 mps 769 mmHg 54%
    17:00 +15°C° 0 mm 4 mps 769 mmHg 59%
    18:00 +14°C° 0 mm 3 mps 769 mmHg 64%
    19:00 +13°C° 0 mm 3 mps 769 mmHg 67%
    20:00 +12°C° 0 mm 4 mps 769 mmHg 69%
    21:00 +11°C° 0 mm 4 mps 769 mmHg 71%
    22:00 +11°C° 0 mm 4 mps 769 mmHg 71%
    23:00 +10°C° 0 mm 4 mps 769 mmHg 72%

    20 September, Friday

    Time Temperature Precipitation Wind Pressure Humidity
    00:00 +10°C° 0 mm 3 mps 769 mmHg 72%
    01:00 +9°C° 0 mm 3 mps 769 mmHg 73%
    02:00 +9°C° 0 mm 3 mps 769 mmHg 75%
    03:00 +8°C° 0 mm 3 mps 768 mmHg 76%
    04:00 +8°C° 0 mm 3 mps 768 mmHg 75%
    05:00 +8°C° 0 mm 3 mps 768 mmHg 75%
    06:00 +8°C° 0 mm 3 mps 767 mmHg 74%
    07:00 +10°C° 0 mm 4 mps 767 mmHg 65%
    08:00 +13°C° 0 mm 5 mps 767 mmHg 55%
    09:00 +15°C° 0 mm 5 mps 767 mmHg 45%
    10:00 +17°C° 0 mm 5 mps 767 mmHg 41%
    11:00 +19°C° 0 mm 6 mps 766 mmHg 37%
    12:00 +21°C° 0 mm 6 mps 766 mmHg 33%
    13:00 +22°C° 0 mm 6 mps 765 mmHg 33%
    14:00 +22°C° 0 mm 6 mps 764 mmHg 33%
    15:00 +22°C° 0 mm 6 mps 764 mmHg 33%
    16:00 +21°C° 0 mm 5 mps 764 mmHg 38%
    17:00 +19°C° 0 mm 5 mps 763 mmHg 43%
    18:00 +17°C° 0 mm 4 mps 763 mmHg 48%
    19:00 +15°C° 0 mm 4 mps 763 mmHg 50%
    20:00 +14°C° 0 mm 4 mps 763 mmHg 52%
    21:00 +14°C° 0 mm 5 mps 763 mmHg 54%
    22:00 +13°C° 0 mm 5 mps 762 mmHg 55%
    23:00 +12°C° 0 mm 5 mps 762 mmHg 55%

    21 September, Saturday

    Time Temperature Precipitation Wind Pressure Humidity
    00:00 +12°C° 0 mm 5 mps 761 mmHg 56%
    01:00 +10°C° 0 mm 5 mps 761 mmHg 58%
    02:00 +11°C° 0 mm 4 mps 760 mmHg 61%
    03:00 +10°C° 0 mm 4 mps 760 mmHg 63%
    04:00 +10°C° 0 mm 4 mps 760 mmHg 64%
    05:00 +10°C° 0 mm 4 mps 759 mmHg 66%
    06:00 +8°C° 0 mm 4 mps 759 mmHg 67%
    07:00 +12°C° 0 mm 4 mps 759 mmHg 63%
    08:00 +14°C° 0 mm 5 mps 759 mmHg 59%
    09:00 +16°C° 0 mm 5 mps 759 mmHg 55%
    10:00 +20°C° 0 mm 5 mps 758 mmHg 52%
    11:00 +22°C° 0 mm 5 mps 758 mmHg 49%
    12:00 +26°C° 0 mm 5 mps 757 mmHg 47%
    13:00 +27°C° 0 mm 5 mps 757 mmHg 45%
    14:00 +27°C° 0 mm 5 mps 756 mmHg 44%
    15:00 +28°C° 0 mm 5 mps 755 mmHg 43%
    16:00 +27°C° 0 mm 4 mps 755 mmHg 47%
    17:00 +25°C° 0 mm 4 mps 755 mmHg 52%
    18:00 +22°C° 0 mm 3 mps 755 mmHg 57%
    19:00 +23°C° 0 mm 2 mps 755 mmHg 59%
    20:00 +21°C° 0 mm 2 mps 756 mmHg 61%
    21:00 +20°C° 0 mm 2 mps 756 mmHg 62%
    22:00 +20°C° 0.1 mm 2 mps 756 mmHg 69%
    23:00 +19°C° 0.1 mm 2 mps 756 mmHg 75%

    22 September, Sunday

    Time Temperature Precipitation Wind Pressure Humidity
    00:00 +19°C° 0.1 mm 2 mps 756 mmHg 81%
    01:00 +19°C° 0.1 mm 2 mps 756 mmHg 84%
    02:00 +19°C° 0.1 mm 3 mps 756 mmHg 87%
    03:00 +19°C° 0.1 mm 4 mps 756 mmHg 90%
    04:00 +18°C° 0.1 mm 4 mps 756 mmHg 92%
    05:00 +18°C° 0.1 mm 4 mps 756 mmHg 94%
    06:00 +18°C° 0.1 mm 4 mps 756 mmHg 95%
    07:00 +19°C° 0.1 mm 4 mps 757 mmHg 91%
    08:00 +20°C° 0.1 mm 4 mps 757 mmHg 86%
    09:00 +21°C° 0.1 mm 4 mps 758 mmHg 81%
    10:00 +22°C° 0.3 mm 4 mps 758 mmHg 76%
    11:00 +23°C° 0.3 mm 4 mps 758 mmHg 72%
    12:00 +23°C° 0.3 mm 4 mps 758 mmHg 68%
    13:00 +23°C° 0.3 mm 4 mps 758 mmHg 67%
    14:00 +23°C° 0.3 mm 4 mps 759 mmHg 66%
    15:00 +23°C° 0.3 mm 4 mps 759 mmHg 65%
    16:00 +21°C° 0.2 mm 4 mps 759 mmHg 71%
    17:00 +20°C° 0.2 mm 3 mps 760 mmHg 76%
    18:00 +18°C° 0.2 mm 3 mps 760 mmHg 82%
    19:00 +17°C° 0 mm 2 mps 761 mmHg 83%
    20:00 +16°C° 0 mm 2 mps 761 mmHg 83%
    21:00 +15°C° 0 mm 1 mps 762 mmHg 84%
    22:00 +15°C° 0 mm 1 mps 762 mmHg 84%
    23:00 +15°C° 0 mm 1 mps 762 mmHg 84%
    Show more